Time_in_sec,Mx,My,Mz
1314362646.02129889,0.05737664,0.68421352,-0.91861421
1314362646.06949139,0.06404310,0.68593240,-0.91918272
1314362646.10946012,0.05739992,0.68423378,-0.92049408
1314362646.16942382,0.05847857,0.68781716,-0.92260855
1314362646.22150755,0.05966956,0.68776220,-0.91877717
1314362646.26897907,0.06312648,0.68631703,-0.91843235
1314362646.32447219,0.05712111,0.68586928,-0.91810393
1314362646.36808681,0.06352060,0.68555129,-0.91880691
1314362646.42152452,0.05731344,0.68794513,-0.92146754
1314362646.46945834,0.06511468,0.68745387,-0.91940099
1314362646.52176833,0.05826903,0.68495542,-0.91735893
1314362646.56849599,0.06311232,0.68514836,-0.91654325
1314362646.62207961,0.05793482,0.68420553,-0.91844755
1314362646.66853571,0.06211036,0.68820012,-0.91460854
1314362646.72061324,0.05799932,0.68544251,-0.91495961
1314362646.76947832,0.06214781,0.68938905,-0.91837758
1314362646.82061338,0.05664762,0.68354297,-0.91488904
1314362646.86990166,0.06266842,0.68615371,-0.91469532
1314362646.92198110,0.05678929,0.68506944,-0.91462356
1314362646.97092342,0.06256652,0.68770206,-0.91619086
1314362647.02186990,0.05749207,0.68416667,-0.91444182
1314362647.06900525,0.06294141,0.68640566,-0.91468149
1314362647.12049484,0.05619437,0.68457484,-0.91546041
1314362647.16998959,0.06364626,0.68626696,-0.91437101
1314362647.22146964,0.05949442,0.68647224,-0.91729957
1314362647.27116346,0.06322452,0.68538165,-0.91465741
1314362647.32148528,0.05820008,0.68568361,-0.91387492
1314362647.36952543,0.06164473,0.68373114,-0.91379571
1314362647.42269754,0.05670467,0.68546790,-0.91597509
1314362647.46846080,0.06389078,0.68805325,-0.91463900
1314362647.52146626,0.05619343,0.68276662,-0.91343141
1314362647.56953096,0.06312476,0.68871331,-0.91589749
1314362647.62046099,0.05723850,0.68454802,-0.91405624
1314362647.67246866,0.06316050,0.68638843,-0.91332501
1314362647.72102976,0.05512702,0.68560064,-0.91485792
1314362647.77247286,0.06192719,0.68599510,-0.91110909
1314362647.82147336,0.05700858,0.68515486,-0.91098368
1314362647.86848545,0.06083145,0.68661940,-0.90875846
1314362647.92051506,0.05571207,0.68553805,-0.90971780
1314362647.97530866,0.06206685,0.68482172,-0.90894240
1314362648.02059078,0.05636708,0.68757480,-0.90996403
1314362648.06949401,0.05962553,0.68380010,-0.90638840
1314362648.10949755,0.05661882,0.68459624,-0.90616488
1314362648.16903377,0.05459590,0.68565667,-0.90776765
1314362648.22144890,0.05690818,0.68881941,-0.90765792
1314362648.26906538,0.05992906,0.68623686,-0.90786719
1314362648.32061315,0.05662995,0.68614769,-0.90805697
1314362648.37221718,0.06192915,0.68767571,-0.91313708
1314362648.42060328,0.05604098,0.68580407,-0.91104448
1314362648.47123003,0.06260763,0.68688029,-0.91107643
1314362648.52105498,0.05700934,0.68390542,-0.91339284
1314362648.56847620,0.06497831,0.68641132,-0.91725117
1314362648.62157083,0.05937609,0.68598527,-0.91931820
1314362648.66852617,0.06518702,0.68950325,-0.92021841
1314362648.72161222,0.05929937,0.68821532,-0.92484838
1314362648.76961660,0.06706575,0.68788290,-0.92560673
1314362648.82162046,0.06207250,0.68708163,-0.92897940
1314362648.87250614,0.06508439,0.68768597,-0.92894441
1314362648.92150283,0.05940868,0.68625480,-0.93235177
1314362648.96962285,0.06819793,0.68857509,-0.93172729
1314362649.02146411,0.06237656,0.68714708,-0.93527746
1314362649.06891608,0.06814956,0.68723238,-0.93722898
1314362649.12050414,0.06403560,0.68689603,-0.93732965
1314362649.16947579,0.06912518,0.69045323,-0.94109339
1314362649.22061753,0.06405667,0.68706888,-0.94149500
1314362649.26947999,0.06872780,0.68752480,-0.94122875
1314362649.32151985,0.06436741,0.68769586,-0.94080997
1314362649.36961389,0.06984515,0.69033635,-0.94279772
1314362649.42144656,0.06548145,0.68579400,-0.94301558
1314362649.46961856,0.06818997,0.68997431,-0.94302493
1314362649.52161145,0.06199297,0.68518203,-0.94186878
1314362649.56950259,0.06902038,0.68851280,-0.93853194
1314362649.62162304,0.06262875,0.68668807,-0.94023097
1314362649.66945601,0.06405837,0.68633264,-0.93248695
1314362649.70949960,0.05901982,0.68648511,-0.92968863
1314362649.76955128,0.05851175,0.68248451,-0.92498517
1314362649.82144856,0.05681852,0.68524075,-0.91865414
1314362649.86960411,0.06048948,0.68441629,-0.91695797
1314362649.92060089,0.05557856,0.68401003,-0.90984839
1314362649.97136497,0.06120602,0.68613696,-0.91168928
1314362650.02098203,0.05314034,0.68362486,-0.90716463
1314362650.07349825,0.05938233,0.68402731,-0.90358245
1314362650.12151408,0.05245123,0.68215752,-0.90060949
1314362650.16961789,0.05820721,0.68451464,-0.90029484
1314362650.22147489,0.05275614,0.68467200,-0.89752042
1314362650.26162291,0.05568371,0.68486083,-0.89439672
1314362650.32094836,0.05733181,0.68611604,-0.89417666
1314362650.36946011,0.05603133,0.68507379,-0.89088482
1314362650.42060351,0.05103213,0.68412155,-0.89210683
1314362650.46844840,0.05610791,0.68671536,-0.88941467
1314362650.52084541,0.04957473,0.68244761,-0.88922238
1314362650.56886911,0.05704812,0.68553710,-0.88760477
1314362650.62144661,0.04982343,0.68280697,-0.88732964
1314362650.66961479,0.05631993,0.68463629,-0.88616204
1314362650.72162366,0.04966662,0.68421370,-0.88748360
1314362650.76948786,0.05594618,0.68784356,-0.88741702
1314362650.82163358,0.04975429,0.68343252,-0.88612902
1314362650.87252069,0.05607542,0.68285000,-0.88589406
1314362650.90945458,0.04846982,0.68320107,-0.88700765
1314362650.96946168,0.04989696,0.68778640,-0.88776588
1314362651.02144814,0.04856879,0.68407398,-0.88526177
1314362651.06961346,0.05307490,0.68491900,-0.88541102
1314362651.12098217,0.04686680,0.68550462,-0.88604259
1314362651.16969490,0.05435943,0.68616962,-0.88440567
1314362651.22061610,0.04998236,0.68613851,-0.88882351
1314362651.27250719,0.05379500,0.68388551,-0.88495857
1314362651.32155275,0.04891508,0.68522847,-0.88619101
1314362651.36949515,0.05526992,0.68553138,-0.88528889
1314362651.42147470,0.04938947,0.68243366,-0.88775498
1314362651.46083069,0.05598280,0.68630767,-0.88700026
1314362651.52061582,0.05541945,0.68491518,-0.88742542
1314362651.57087183,0.05711048,0.68794584,-0.88627565
1314362651.62046909,0.04762543,0.68359661,-0.88732815
1314362651.67358279,0.05553879,0.68527454,-0.88540578
1314362651.72057176,0.04956688,0.68459028,-0.88682038
1314362651.76961565,0.05414439,0.68567646,-0.88575804
1314362651.82153010,0.04921350,0.68432897,-0.88589829
1314362651.86859155,0.05575676,0.68334645,-0.88430381
1314362651.92161107,0.04866860,0.68471658,-0.88579828
1314362651.97149110,0.05420043,0.68477392,-0.88494182
1314362652.02162790,0.05028608,0.68572289,-0.88611555
1314362652.07018876,0.05306686,0.68400395,-0.88338912
1314362652.12160540,0.04853533,0.68431044,-0.88351876
1314362652.16949320,0.05362612,0.68488765,-0.88309473
1314362652.22144818,0.05071200,0.68518114,-0.88366830
1314362652.27046847,0.05514582,0.68499607,-0.88287342
1314362652.32060456,0.04991747,0.68340123,-0.88343209
1314362652.36948633,0.05605123,0.68795085,-0.88566500
1314362652.42156267,0.04788753,0.68341905,-0.88301200
1314362652.47059155,0.05517517,0.68425071,-0.88474727
1314362652.50949216,0.04931660,0.68275565,-0.88211828
1314362652.57071614,0.04909565,0.68608576,-0.88309664
1314362652.62147903,0.04999798,0.68544906,-0.88411462
1314362652.66879892,0.05465171,0.68501651,-0.88424575
1314362652.72047138,0.05020981,0.68326730,-0.88314545
1314362652.76951694,0.05525170,0.68487310,-0.88340384
1314362652.82052493,0.04980115,0.68561411,-0.88735199
1314362652.86962700,0.05703004,0.68396223,-0.88356304
1314362652.92083740,0.05117019,0.68442792,-0.88524860
1314362652.96948743,0.05745481,0.68741977,-0.88517690
1314362653.02143574,0.05192091,0.68364334,-0.88425881
1314362653.06962323,0.05581571,0.68297768,-0.88564128
1314362653.12060475,0.05093579,0.68432063,-0.88687366
1314362653.16952372,0.05785879,0.68721122,-0.88985479
1314362653.22086811,0.05055882,0.68485302,-0.88851184
1314362653.26949596,0.05590432,0.68400466,-0.88631570
1314362653.32050681,0.04983968,0.68473965,-0.88908994
1314362653.36959910,0.05826632,0.68590862,-0.88780600
1314362653.42144847,0.05171067,0.68434536,-0.88991952
1314362653.46850371,0.05748803,0.68606138,-0.88933009
1314362653.52146602,0.05157722,0.68383658,-0.88992339
1314362653.56951642,0.05672922,0.68491167,-0.88842469
1314362653.62088299,0.05164647,0.68524951,-0.89087057
1314362653.66972637,0.05727615,0.68426883,-0.88852268
1314362653.70946741,0.05276378,0.68408674,-0.89066297
1314362653.76880455,0.04930490,0.68385130,-0.88897979
1314362653.82147598,0.05177499,0.68547970,-0.88871503
1314362653.86953449,0.05774887,0.68488950,-0.88742512
1314362653.92161560,0.05122795,0.68408406,-0.88887054
1314362653.97091556,0.05715495,0.68722236,-0.89016420
1314362654.02049971,0.05101511,0.68343836,-0.88793737
1314362654.06948972,0.05641247,0.68311447,-0.88708586
1314362654.12153029,0.04940889,0.68306696,-0.88735551
1314362654.16960120,0.05766038,0.68590099,-0.88649726
1314362654.22071624,0.05026958,0.68562335,-0.88866866
1314362654.26860213,0.05663979,0.68411487,-0.88546789
1314362654.32161236,0.04994283,0.68418556,-0.88518327
1314362654.36949730,0.05559180,0.68475479,-0.88459259
1314362654.42064905,0.05121598,0.68571794,-0.88659924
1314362654.47349644,0.05560489,0.68503177,-0.88660944
1314362654.51804686,0.05002031,0.68366110,-0.88396555
1314362654.56854916,0.05677438,0.68357950,-0.88330621
1314362654.61779308,0.04886233,0.68391508,-0.88269067
1314362654.66951442,0.05446532,0.68309164,-0.88303280
1314362654.72061133,0.04916884,0.68494982,-0.88429314
1314362654.76953435,0.05628533,0.68591696,-0.88657677
1314362654.82062006,0.05007230,0.68326890,-0.88315344
1314362654.86949396,0.05523956,0.68344927,-0.88151276
1314362654.92112207,0.05005706,0.68416369,-0.88329542
1314362654.96964288,0.05557565,0.68781561,-0.88448215
1314362655.02150249,0.05059791,0.68428642,-0.88339943
1314362655.06864095,0.05629076,0.68548429,-0.88200480
1314362655.12085009,0.05024250,0.68428034,-0.88247937
1314362655.16947341,0.05671543,0.68394828,-0.88196874
1314362655.22061753,0.05185373,0.68594950,-0.88508618
1314362655.27353096,0.05406198,0.68296731,-0.88292080
1314362655.32068586,0.04864425,0.68380469,-0.88404608
1314362655.36873841,0.05738360,0.68432617,-0.88220173
1314362655.42144203,0.04923911,0.68328011,-0.88333601
1314362655.46869731,0.05629784,0.68754613,-0.88390100
1314362655.52161837,0.05051853,0.68414950,-0.88246244
1314362655.57347989,0.05787655,0.68830502,-0.88489044
1314362655.62074804,0.04889990,0.68418741,-0.88430291
1314362655.66950464,0.05598205,0.68460208,-0.88268781
1314362655.71779704,0.05180192,0.68644434,-0.88361484
1314362655.76852393,0.05522829,0.68576944,-0.88368070
1314362655.82144952,0.05108682,0.68582058,-0.88418895
1314362655.86959982,0.05683256,0.68446022,-0.88223457
1314362655.92162919,0.04984398,0.68239605,-0.88477242
1314362655.96977854,0.05611239,0.68742949,-0.88471699
1314362656.02081180,0.05065186,0.68557489,-0.88461530
1314362656.06853271,0.05553999,0.68524957,-0.88312131
1314362656.10947323,0.05088113,0.68530089,-0.88312197
1314362656.16824985,0.05199850,0.68515736,-0.88278764
1314362656.22148681,0.05030366,0.68671405,-0.88343465
1314362656.26865315,0.05414755,0.68437707,-0.88359827
1314362656.32061911,0.05209617,0.68401676,-0.88357961
1314362656.36948562,0.05730098,0.68742448,-0.88545454
1314362656.42048931,0.04987275,0.68300289,-0.88195366
1314362656.47350979,0.05711377,0.68572986,-0.88195914
1314362656.52053332,0.05173159,0.68413979,-0.88279545
1314362656.56862617,0.05474349,0.68474412,-0.88276041
1314362656.62144947,0.05063966,0.68313181,-0.88285089
1314362656.66852117,0.05632739,0.68394840,-0.88158804
1314362656.72163129,0.04917801,0.68482065,-0.88415730
1314362656.77254105,0.05583758,0.68458033,-0.88054615
1314362656.82165265,0.05207181,0.68605989,-0.88373077
1314362656.87251496,0.05491965,0.68295145,-0.88233370
1314362656.92049050,0.05003354,0.68302155,-0.88382566
1314362656.96950388,0.05432591,0.68538690,-0.88278937
1314362657.02145171,0.05017534,0.68363142,-0.88140345
1314362657.06877160,0.05445121,0.68294221,-0.88101703
1314362657.12163401,0.05022947,0.68502253,-0.88033587
1314362657.16948462,0.05773298,0.68611717,-0.88300121
1314362657.21774936,0.04907327,0.68389940,-0.88146913
1314362657.27352262,0.05493013,0.68483579,-0.87965995
1314362657.32145929,0.04989330,0.68259197,-0.87939644
1314362657.36967158,0.05534473,0.68559504,-0.87950730
1314362657.42198992,0.04902861,0.68452030,-0.87986398
1314362657.46967340,0.05705292,0.68543726,-0.87846696
1314362657.52071166,0.04763933,0.68234837,-0.87818116
1314362657.57014370,0.05541184,0.68522465,-0.88070995
1314362657.62055230,0.04955725,0.68515497,-0.88010693
1314362657.67362738,0.05408302,0.68480015,-0.87554330
1314362657.70948100,0.04995155,0.68449193,-0.87819809
1314362657.76958299,0.04814469,0.68296283,-0.87654418
1314362657.82144690,0.05042224,0.68536782,-0.87710255
1314362657.86846972,0.05362048,0.68392271,-0.87650394
1314362657.92162299,0.04978659,0.68294519,-0.87658364
1314362657.96946788,0.05488558,0.68749511,-0.87780136
1314362658.02052212,0.04805310,0.68333787,-0.87574613
1314362658.07059097,0.05381813,0.68352735,-0.87554902
1314362658.10945868,0.04872938,0.68269497,-0.87597096
1314362658.16957903,0.04699784,0.68476832,-0.87716144
1314362658.22389746,0.04848919,0.68844950,-0.87696862
1314362658.26846576,0.05475720,0.68339324,-0.87589687
1314362658.32230902,0.04894341,0.68331575,-0.87461960
1314362658.36950755,0.05423476,0.68403143,-0.87539434
1314362658.41765285,0.04923776,0.68588167,-0.87623423
1314362658.47350240,0.05384874,0.68377632,-0.87501162
1314362658.52153516,0.04899831,0.68345737,-0.87596112
1314362658.56966805,0.05533581,0.68389100,-0.87532973
1314362658.62148762,0.04852178,0.68446898,-0.87465262
1314362658.66868615,0.05254295,0.68520528,-0.87603831
1314362658.71766710,0.04924997,0.68536973,-0.87609535
1314362658.76973557,0.05411046,0.68634850,-0.87716568
1314362658.82066870,0.04665155,0.68361378,-0.87623221
1314362658.87351370,0.05396982,0.68173939,-0.87552685
1314362658.90948200,0.04837814,0.68421692,-0.87479341
1314362658.96855450,0.04902891,0.68666136,-0.87732708
1314362659.02158070,0.04957381,0.68627375,-0.87742710
1314362659.06058526,0.05386595,0.68456221,-0.87689769
1314362659.11766696,0.05408486,0.68444234,-0.87782466
1314362659.16954255,0.05443829,0.68572289,-0.87862009
1314362659.22155142,0.05239596,0.68614995,-0.88062233
1314362659.26859379,0.05464107,0.68570876,-0.87753332
1314362659.32149887,0.04915587,0.68375623,-0.88011962
1314362659.36863208,0.05535182,0.68470180,-0.87950021
1314362659.42148137,0.04775248,0.68438995,-0.87832427
1314362659.47286224,0.05545984,0.68636215,-0.87977517
1314362659.52064681,0.04886669,0.68259072,-0.87824643
1314362659.57350564,0.05636026,0.68801910,-0.88054180
1314362659.62058973,0.04912544,0.68360990,-0.87837350
1314362659.66949081,0.05472545,0.68418849,-0.87859195
1314362659.72057271,0.04936579,0.68386817,-0.87889904
1314362659.76863241,0.05312833,0.68562376,-0.87990427
1314362659.81749821,0.04868029,0.68362093,-0.87893677
1314362659.86859488,0.05539887,0.68403107,-0.87653643
1314362659.92059875,0.04760175,0.68503112,-0.87847215
1314362659.96946263,0.05372623,0.68471634,-0.87919110
1314362660.02058125,0.05245003,0.68652183,-0.87968141
1314362660.07353520,0.05409099,0.68469596,-0.87769186
1314362660.12054539,0.04819851,0.68516791,-0.87991679
1314362660.16959381,0.05494954,0.68546909,-0.87926048
1314362660.21751952,0.04985060,0.68489349,-0.87981933
1314362660.26955914,0.05514101,0.68380088,-0.87856507
1314362660.32058191,0.04961126,0.68450761,-0.87929279
1314362660.36967063,0.05677468,0.68572062,-0.88076937
1314362660.42062974,0.04804159,0.68453616,-0.88032418
1314362660.47351599,0.05604143,0.68545783,-0.87933171
1314362660.50947237,0.04791648,0.68412846,-0.87790978
1314362660.56858850,0.04831368,0.68695426,-0.88005787
1314362660.61747003,0.05008297,0.68525594,-0.87819624
1314362660.66859818,0.05517061,0.68417746,-0.87802875
1314362660.72064257,0.04888497,0.68426824,-0.88000470
1314362660.76854181,0.05511766,0.68571645,-0.87871516
1314362660.82063890,0.04817201,0.68542778,-0.88032335
1314362660.86955023,0.05481931,0.68468016,-0.87697786
1314362660.90949464,0.04815678,0.68336749,-0.87856197
1314362660.96858883,0.04949919,0.68335772,-0.87902188
1314362661.01747894,0.04957673,0.68385249,-0.87767744
1314362661.06854391,0.05511374,0.68531024,-0.87656248
1314362661.12063122,0.04846347,0.68450487,-0.87788099
1314362661.16952372,0.05427732,0.68855661,-0.88093483
1314362661.21755862,0.04850819,0.68490320,-0.87935942
1314362661.26856947,0.05254795,0.68354803,-0.87615997
1314362661.32052493,0.04950140,0.68320513,-0.87673640
1314362661.36968160,0.05575130,0.68543923,-0.87733287
1314362661.41775680,0.04708937,0.68337405,-0.87808621
1314362661.46861386,0.05405044,0.68582565,-0.87595594
1314362661.52151513,0.04849420,0.68383723,-0.87518692
1314362661.57196021,0.05449953,0.68326575,-0.87564206
1314362661.62063265,0.04820168,0.68386847,-0.87775695
1314362661.66932011,0.05207845,0.68264717,-0.87497103
1314362661.70857000,0.04851754,0.68487674,-0.87694013
1314362661.76859117,0.04766304,0.68359321,-0.87536746
1314362661.81745934,0.04836087,0.68536687,-0.87493736
1314362661.86861181,0.05464227,0.68568385,-0.87524891
1314362661.91749525,0.05022585,0.68380237,-0.87374300
1314362661.96950650,0.05498445,0.68632954,-0.87630892
1314362662.01794505,0.04775791,0.68395722,-0.87375236
1314362662.07251644,0.05256654,0.68441159,-0.87347806
1314362662.11801648,0.04767555,0.68522233,-0.87269169
1314362662.16861200,0.05331004,0.68543684,-0.87465215
1314362662.21747589,0.04874706,0.68572462,-0.87303668
1314362662.26859426,0.05359846,0.68489671,-0.87221283
1314362662.31760144,0.04758289,0.68470573,-0.87202132
1314362662.37121081,0.05285578,0.68364125,-0.87332124
1314362662.42059851,0.04854321,0.68780214,-0.87615442
1314362662.47354865,0.05455878,0.68503809,-0.87444264
1314362662.52152491,0.04826314,0.68548828,-0.87427211
1314362662.56952357,0.05529835,0.68565714,-0.87346405
1314362662.61748934,0.04698253,0.68464381,-0.87743008
1314362662.66044593,0.05419211,0.68735212,-0.87569052
1314362662.72149968,0.05481037,0.68888623,-0.87660688
1314362662.77250719,0.05501291,0.68775028,-0.87793028
1314362662.82054877,0.04831173,0.68527359,-0.87802988
1314362662.86947513,0.05364501,0.68493724,-0.87597269
1314362662.92141509,0.04946072,0.68525141,-0.87715721
1314362662.96853161,0.05521305,0.68793547,-0.87921226
1314362663.01747251,0.04930488,0.68519962,-0.87980175
1314362663.06945586,0.05483984,0.68489897,-0.88122696
1314362663.11746478,0.04825947,0.68535411,-0.88120723
1314362663.16949916,0.05534731,0.68423885,-0.87971431
1314362663.22156310,0.05019402,0.68611932,-0.88311714
1314362663.27250123,0.05476745,0.68580490,-0.88231307
1314362663.31742597,0.04927714,0.68548453,-0.88249338
1314362663.36948442,0.05580239,0.68478513,-0.88345522
1314362663.41745734,0.04942364,0.68525106,-0.88463348
1314362663.46857548,0.05759857,0.68675518,-0.88287938
1314362663.52062464,0.05199845,0.68413812,-0.88291436
1314362663.56947565,0.05798731,0.68744141,-0.88769925
1314362663.62054014,0.05042966,0.68495566,-0.88610148
1314362663.67353725,0.05700967,0.68447572,-0.88383681
1314362663.71741366,0.04813882,0.68512607,-0.88771307
1314362663.76851964,0.05605783,0.68404579,-0.88612276
1314362663.81740999,0.05060017,0.68371916,-0.88576359
1314362663.86150146,0.05712042,0.68467736,-0.88660377
